FW3936 Weather Reports


time (UTC)temp
C
wind
direction
speed
KPH
gust
KPH
rain 1hr
cm
rain 24hr
cm
rain mn
cm
humidity
%
barometer
mb
20260507051511 16 355 3.2 11.3 0.00 0.00 0.00 75 1014.5
20260507050021 16 297 1.6 12.9 0.00 0.00 0.00 75 1014.8
20260507044506 16 346 1.6 17.7 0.00 0.00 0.00 75 1015.1
20260507043005 16 46 3.2 24.1 0.00 0.00 0.00 75 1014.5
20260507041507 16 9 4.8 14.5 0.00 0.00 0.00 75 1014.8
20260507040000 16 90 6.4 16.1 0.00 0.00 0.00 75 1014.1
20260507034609 16 32 4.8 17.7 0.00 0.00 0.00 75 1013.9
20260507033058 16 5 4.8 16.1 0.00 0.00 0.00 75 1013.9
20260507031600 16 334 6.4 17.7 0.00 0.00 0.00 75 1013.8
20260507030101 16 360 3.2 14.5 0.00 0.00 0.00 75 1014.0
20260507024556 16 318 4.8 14.5 0.00 0.00 0.00 75 1014.0
20260507023054 16 321 1.6 14.5 0.00 0.00 0.00 75 1013.8
20260507021611 16 280 3.2 14.5 0.00 0.00 0.00 75 1013.7
20260507020107 16 349 3.2 17.7 0.00 0.00 0.00 75 1013.0
20260507014615 16 333 1.6 11.3 0.00 0.00 0.00 74 1013.1
20260507013049 17 336 3.2 12.9 0.00 0.00 0.00 74 1013.1
20260507011553 17 324 3.2 11.3 0.00 0.00 0.00 74 1012.7
20260507010044 17 333 1.6 12.9 0.00 0.00 0.00 73 1012.4
20260507004537 17 350 3.2 16.1 0.00 0.00 0.00 73 1012.2
20260507003035 18 338 6.4 17.7 0.00 0.00 0.00 73 1012.5
20260507001552 18 321 1.6 16.1 0.00 0.00 0.00 72 1012.1
20260507000035 18 39 1.6 14.5 0.00 0.00 0.00 72 1011.9
20260506234527 18 325 4.8 19.3 0.00 0.00 0.00 72 1011.8
20260506233024 20 5 4.8 19.3 0.00 0.00 0.00 70 1011.4
20260506231521 20 17 3.2 17.7 0.00 0.00 0.00 71 1011.5
20260506230019 21 295 4.8 17.7 0.00 0.00 0.00 68 1011.3
20260506224514 22 360 6.4 14.5 0.00 0.00 0.00 67 1011.2
20260506223010 22 284 3.2 19.3 0.00 0.00 0.00 67 1011.0
20260506221510 23 15 3.2 14.5 0.00 0.00 0.00 67 1010.7
20260506220010 23 49 4.8 16.1 0.00 0.00 0.00 67 1010.6
20260506214509 23 348 3.2 14.5 0.00 0.00 0.00 68 1010.7
20260506213007 24 355 3.2 19.3 0.00 0.00 0.00 66 1010.7
20260506211508 25 100 4.8 16.1 0.00 0.00 0.00 65 1010.5
20260506210010 26 360 3.2 16.1 0.00 0.00 0.00 66 1010.6
20260506204509 24 360 3.2 11.3 0.00 0.00 0.00 69 1010.5
20260506203002 26 327 4.8 14.5 0.00 0.00 0.00 65 1010.8
20260506201501 27 102 0.0 4.8 0.00 0.00 0.00 66 1010.5
20260506200101 27 102 1.6 4.8 0.00 0.00 0.00 68 1010.7
20260506200004 27 102 0.0 4.8 0.00 0.00 0.00 68 1010.8
20260506194557 27 102 0.0 4.8 0.00 0.00 0.00 66 1010.6
20260506193058 27 103 3.2 9.7 0.00 0.00 0.00 67 1010.5
20260506191601 28 101 6.4 12.9 0.00 0.00 0.00 66 1010.7
20260506190055 28 96 6.4 12.9 0.00 0.00 0.00 64 1010.8
20260506184556 28 93 1.6 9.7 0.00 0.00 0.00 68 1011.0
20260506183100 27 94 1.6 12.9 0.00 0.00 0.00 68 1011.2
20260506181600 27 96 3.2 14.5 0.00 0.00 0.00 67 1011.2
20260506180042 26 94 3.2 11.3 0.00 0.00 0.00 72 1011.3
20260506174539 24 105 1.6 8.0 0.00 0.00 0.00 74 1011.4
20260506173102 23 105 1.6 11.3 0.00 0.00 0.00 73 1011.7
20260506171541 25 92 4.8 16.1 0.00 0.00 0.00 74 1011.8
20260506170047 25 88 3.2 12.9 0.00 0.00 0.00 73 1011.8
20260506164529 25 94 3.2 11.3 0.00 0.00 0.00 73 1011.8
20260506163029 25 120 4.8 11.3 0.00 0.00 0.00 74 1011.8
20260506161524 25 121 1.6 6.4 0.00 0.00 0.00 74 1011.7
20260506160019 24 121 1.6 6.4 0.00 0.00 0.00 73 1011.6
20260506154515 23 121 1.6 6.4 0.00 0.00 0.00 73 1011.6
20260506153020 23 121 1.6 8.0 0.00 0.00 0.00 71 1011.3
20260506151509 23 121 1.6 6.4 0.00 0.00 0.00 70 1011.1
20260506150014 23 121 1.6 6.4 0.00 0.00 0.00 68 1011.0
20260506144502 22 121 0.0 3.2 0.00 0.00 0.00 67 1010.9
20260506143101 22 121 0.0 3.2 0.00 0.00 0.00 67 1010.9
20260506141601 22 121 0.0 4.8 0.00 0.00 0.00 67 1010.8
20260506140056 22 121 0.0 6.4 0.00 0.00 0.00 67 1010.4
20260506134552 22 121 1.6 6.4 0.00 0.00 0.00 67 1009.9
20260506133102 22 121 1.6 8.0 0.00 0.00 0.00 67 1009.5
20260506131548 22 121 1.6 11.3 0.00 0.00 0.00 68 1009.5
20260506130052 22 121 3.2 11.3 0.00 0.00 0.00 68 1009.2
20260506124546 22 132 0.0 6.4 0.00 0.00 0.00 69 1009.2
20260506123044 22 133 1.6 6.4 0.00 0.00 0.00 70 1009.3
20260506121542 22 133 1.6 3.2 0.00 0.00 0.00 71 1009.3
20260506120042 22 133 0.0 4.8 0.00 0.00 0.00 71 1009.2
20260506114547 22 133 1.6 6.4 0.00 0.00 0.00 71 1009.2
20260506113041 22 133 0.0 3.2 0.00 0.00 0.00 71 1009.2
20260506111540 22 133 0.0 6.4 0.00 0.00 0.00 71 1009.2
20260506110044 22 133 3.2 8.0 0.00 0.00 0.00 71 1009.1
20260506104605 22 133 0.0 6.4 0.00 0.00 0.00 71 1009.0
20260506103041 22 134 0.0 8.0 0.00 0.00 0.00 71 1008.9
20260506101541 22 134 0.0 8.0 0.00 0.00 0.00 71 1009.1
20260506100043 22 134 0.0 6.4 0.00 0.00 0.00 71 1009.0
20260506094538 22 134 1.6 9.7 0.00 0.00 0.00 72 1009.0
20260506093036 22 131 4.8 12.9 0.00 0.00 0.00 72 1008.8
20260506091535 22 130 3.2 11.3 0.00 0.00 0.00 72 1008.6
20260506090043 22 130 1.6 8.0 0.00 0.00 0.00 72 1008.7
20260506084536 22 130 3.2 11.3 0.00 0.00 0.00 73 1008.6
20260506083039 22 126 6.4 17.7 0.00 0.00 0.00 73 1008.7
20260506081529 22 126 1.6 16.1 0.00 0.00 0.00 73 1008.9
20260506073026 22 131 4.8 14.5 0.00 0.00 0.00 72 1009.0
20260506071526 22 128 4.8 9.7 0.00 0.00 0.00 72 1009.2
20260506061520 23 128 3.2 14.5 0.00 0.00 0.00 73 1009.6